[[{"header":{"parameterUnit":"m.s-1","parameterCategory":2,"la1":30.2991,"la2":30.254,"lo1":-89.0895,"lo2":-89.0444,"dy":0.0017,"dx":0.0017,"nx":28,"ny":28,"refTime":"2025-08-10T03:00:00:Z","depth":"0","parameterNumber":2,"parameterNumberName":"U-component_of_CURRENTS"},"data":[0,0,0,0,0,0,0,0,0,0,0,0,0,0,0,0,0,0,0,0,0,0,0,0,0,0,0,0,0,0,0,0,0,0,0,0,0,0,0,0,0,0,0,0,0,0,0,0,0,0,0,0,0,0,0,0,0,0,-0.2432,-0.2432,0,-0.2471,-0.2472,-0.2472,-0.2447,-0.2446,-0.2445,-0.2444,-0.241,-0.241,-0.241,0,0,0,0,0,0,0,0,0,0,0,0,0,-0.2325,-0.2327,-0.2432,-0.2432,-0.2433,-0.2471,-0.2472,-0.2472,-0.2447,-0.2446,-0.2445,-0.2444,-0.241,-0.241,-0.241,0,0,0,0,0,0,0,0,0,0,0,0,0,-0.2366,-0.2328,-0.2431,-0.2427,-0.2427,-0.2471,-0.2472,-0.2472,-0.2448,-0.2446,-0.2445,-0.2444,-0.241,-0.241,-0.241,-0.2437,0,0,-0.241,-0.241,0,0,0,0,0,0,0,0,-0.2364,-0.237,-0.2427,-0.2428,-0.2428,-0.2455,-0.2422,-0.2458,-0.2448,-0.2437,-0.2444,-0.2443,-0.2421,-0.242,-0.2428,-0.2436,-0.2434,-0.241,-0.241,-0.241,-0.241,0,0,0,0,0,0,0,-0.2361,-0.2368,-0.2445,-0.2428,-0.2429,-0.2421,-0.2425,-0.2428,-0.2433,-0.2438,-0.2437,-0.2446,-0.242,-0.2428,-0.2427,-0.2434,-0.241,-0.241,-0.241,-0.241,-0.2473,-0.2475,0,0,0,0,0,0,-0.2364,-0.2366,-0.2443,-0.2446,-0.2395,-0.2424,-0.2428,-0.2446,-0.2435,-0.2433,-0.2447,-0.2445,-0.2429,-0.2427,-0.2425,-0.2465,-0.241,-0.241,-0.241,-0.2471,-0.2473,-0.2475,0,0,0,0,0,0,-0.2362,-0.2371,-0.2442,-0.2408,-0.2417,-0.2427,-0.2447,-0.2447,-0.245,-0.2443,-0.2439,-0.2449,-0.2428,-0.2426,-0.2436,-0.2462,-0.241,-0.241,-0.2469,-0.2472,-0.2474,-0.2538,0,0,0,0,0,0,-0.2359,-0.237,-0.2379,-0.2409,-0.2419,-0.2473,-0.2449,-0.2449,-0.2459,-0.2456,-0.2443,-0.2439,-0.2427,-0.2437,-0.2436,-0.2461,-0.241,-0.2467,-0.247,-0.2474,-0.2533,-0.2542,-0.255,0,0,0,0,0,-0.2355,-0.2377,-0.2379,-0.2388,-0.2433,-0.2475,-0.2479,-0.2479,-0.246,-0.2473,-0.2465,-0.2439,-0.2457,-0.2438,-0.2437,-0.2463,-0.2466,-0.247,-0.2473,-0.253,-0.254,-0.2549,0,0,0,0,0,0,-0.2334,-0.2378,-0.238,-0.2414,-0.2444,-0.2471,-0.2482,-0.2483,-0.2488,-0.2477,-0.2459,-0.2456,-0.2478,-0.2465,-0.2445,-0.2493,-0.2458,-0.2462,-0.2501,-0.2511,-0.2519,-0.2518,-0.2409,0,0,0,0,0,-0.2336,-0.2361,-0.2403,-0.2427,-0.2443,-0.2461,-0.2475,-0.2481,-0.2493,-0.2493,-0.2487,-0.2484,-0.2497,-0.2497,-0.2504,-0.2528,-0.2514,-0.2545,-0.2554,-0.256,-0.2561,-0.2577,-0.2586,-0.2488,-0.2488,-0.2488,0,0,-0.2333,-0.2361,-0.2373,-0.2423,-0.2441,-0.248,-0.2465,-0.2494,-0.2522,-0.2489,-0.2514,-0.2512,-0.2511,-0.2541,-0.2549,-0.253,-0.2582,-0.2565,-0.2571,-0.2568,-0.2582,-0.2591,-0.2599,-0.2491,-0.249,-0.249,0,0,-0.2345,-0.2367,-0.2393,-0.2426,-0.2466,-0.2488,-0.2498,-0.2531,-0.254,-0.2572,-0.2559,-0.2575,-0.2585,-0.2599,-0.2605,-0.2663,-0.2626,-0.2662,-0.2698,-0.2714,-0.2722,-0.2728,-0.2722,-0.2727,-0.2663,-0.2663,-0.2663,0,-0.2336,-0.2381,-0.2407,-0.2446,-0.2475,-0.2494,-0.2533,-0.2558,-0.2589,-0.2605,-0.2584,-0.2623,-0.2618,-0.2665,-0.2683,-0.2682,-0.2671,-0.2659,-0.2724,-0.273,-0.2736,-0.2727,-0.2732,-0.2667,-0.2666,-0.2666,-0.2666,0,-0.2373,-0.2411,-0.2431,-0.2488,-0.2525,-0.2561,-0.2608,-0.2636,-0.2644,-0.2665,-0.2706,-0.2709,-0.2727,-0.2737,-0.2724,-0.2772,-0.2744,-0.2733,-0.2695,-0.2749,-0.2737,-0.2741,-0.2672,-0.2671,-0.267,-0.2669,0,0,-0.2343,-0.2438,-0.2442,-0.2478,-0.2549,-0.2584,-0.2642,-0.2702,-0.2733,-0.276,-0.2797,-0.2829,-0.2818,-0.2825,-0.2818,-0.2832,-0.2862,-0.2796,-0.2795,-0.2782,-0.2877,-0.2814,-0.2812,-0.2856,-0.2857,-0.2858,-0.285,0,-0.2359,-0.2435,-0.2483,-0.2554,-0.2597,-0.2647,-0.2701,-0.2756,-0.2789,-0.283,-0.2849,-0.2877,-0.2857,-0.286,-0.2877,-0.2866,-0.2876,-0.2864,-0.2832,-0.2831,-0.2763,-0.2816,-0.2682,-0.2659,-0.2854,-0.2855,-0.2855,0,-0.237,-0.2424,-0.2495,-0.2592,-0.2614,-0.2657,-0.274,-0.2793,-0.2863,-0.2887,-0.2923,-0.293,-0.2963,-0.2929,-0.2945,-0.2933,-0.2909,-0.2897,-0.2896,-0.2817,-0.2776,-0.2639,-0.2659,-0.2627,-0.2861,-0.2861,-0.2861,0,-0.2325,-0.2429,-0.2483,-0.2516,-0.2629,-0.2662,-0.2715,-0.2796,-0.2843,-0.2912,-0.2939,-0.2983,-0.299,-0.2989,-0.2963,-0.2952,-0.2965,-0.2948,-0.2873,-0.2867,-0.2735,-0.2716,-0.2712,-0.2959,-0.2959,-0.2959,-0.2959,0,-0.232,-0.2361,-0.2461,-0.2491,-0.2549,-0.2636,-0.2697,-0.2757,-0.2842,-0.289,-0.2949,-0.2982,-0.3002,-0.3011,-0.2985,-0.2939,-0.2983,-0.2885,-0.2868,-0.2753,-0.2737,-0.2687,-0.2699,-0.2958,-0.2958,-0.2959,-0.2959,0,-0.2256,-0.2329,-0.2389,-0.2496,-0.2527,-0.2559,-0.2669,-0.2713,-0.2805,-0.2866,-0.2887,-0.2977,-0.299,-0.3,-0.2995,-0.2953,-0.2868,-0.2896,-0.275,-0.2716,-0.2604,-0.2624,-0.2593,-0.2526,-0.2812,-0.281,-0.2809,0,-0.223,-0.2254,-0.2356,-0.2381,-0.2423,-0.2491,-0.2536,-0.2661,-0.2711,-0.2853,-0.287,-0.2929,-0.2943,-0.2931,-0.2879,-0.2831,-0.2807,-0.2672,-0.2635,-0.2587,-0.2598,-0.2604,-0.255,-0.2483,-0.2479,-0.2476,-0.2474,0,-0.2159,-0.2189,-0.2233,-0.2285,-0.233,-0.2393,-0.2467,-0.251,-0.2653,-0.2715,-0.2791,-0.2822,-0.284,-0.2747,-0.27,-0.2648,-0.2591,-0.2605,-0.2597,-0.2378,-0.2344,-0.2272,-0.2496,-0.2446,-0.2448,-0.2451,-0.2452,-0.2453,-0.2076,-0.208,-0.2128,-0.2167,-0.2219,-0.2259,-0.2265,-0.2364,-0.2425,-0.2492,-0.2616,-0.2623,-0.2595,-0.2517,-0.2476,-0.234,-0.241,-0.225,-0.2288,-0.2307,-0.2213,-0.2372,-0.2283,-0.2284,-0.2286,-0.2287,-0.2288,0,-0.1958,-0.1977,-0.2009,-0.2047,-0.2045,-0.2121,-0.2187,-0.217,-0.2186,-0.229,-0.2328,-0.2332,-0.2232,-0.2227,-0.2128,-0.204,-0.1991,-0.1993,-0.1967,-0.1933,-0.2091,-0.2046,-0.1851,-0.1851,-0.1851,-0.1851,-0.1851,-0.1851,-0.1894,-0.1874,-0.1898,-0.1853,-0.1876,-0.1827,-0.1832,-0.183,-0.1869,-0.188,-0.1932,-0.2019,-0.2023,-0.2097,-0.1966,-0.1875,-0.1832,-0.1774,-0.1828,-0.1939,-0.1966,-0.1991,-0.1951,-0.174,-0.174,-0.1572,-0.1571,-0.157]},{"header":{"parameterUnit":"m.s-1","parameterCategory":2,"la1":30.2991,"la2":30.254,"lo1":-89.0895,"lo2":-89.0444,"dy":0.0017,"dx":0.0017,"nx":28,"ny":28,"refTime":"2025-08-10T03:00:00:Z","depth":"0","parameterNumber":3,"parameterNumberName":"V-component_of_CURRENTS"},"data":[0,0,0,0,0,0,0,0,0,0,0,0,0,0,0,0,0,0,0,0,0,0,0,0,0,0,0,0,0,0,0,0,0,0,0,0,0,0,0,0,0,0,0,0,0,0,0,0,0,0,0,0,0,0,0,0,0,0,-0.0174,-0.0173,0,-0.0082,-0.0081,-0.0079,-0.0015,-0.0015,-0.0015,-0.0014,0.0099,0.0102,0.0104,0,0,0,0,0,0,0,0,0,0,0,0,0,-0.0238,-0.0238,-0.0174,-0.0173,-0.0172,-0.0082,-0.0081,-0.0079,-0.0016,-0.0015,-0.0015,-0.0014,0.0098,0.0101,0.0105,0,0,0,0,0,0,0,0,0,0,0,0,0,-0.0184,-0.0238,-0.0174,-0.013,-0.0125,-0.0082,-0.0081,-0.0079,-0.0016,-0.0015,-0.0015,-0.0014,0.0097,0.0101,0.0105,0.0119,0,0,0.0117,0.0119,0,0,0,0,0,0,0,0,-0.0187,-0.0181,-0.0138,-0.0133,-0.0128,-0.0061,-0.0062,-0.0012,-0.0016,-0.0056,-0.0014,-0.0014,0.0046,0.0055,0.0072,0.0124,0.0129,0.0118,0.012,0.0122,0.0123,0,0,0,0,0,0,0,-0.0191,-0.0185,-0.0136,-0.0137,-0.0131,-0.0096,-0.0088,-0.0052,-0.0008,-0.0052,-0.0048,-0.004,0.0049,0.0068,0.0075,0.013,0.0117,0.0121,0.0123,0.0125,0.0207,0.0207,0,0,0,0,0,0,-0.0208,-0.0189,-0.0139,-0.0133,-0.0158,-0.0096,-0.0086,-0.0082,-0.0008,0.0003,-0.004,-0.0037,0.0061,0.0071,0.008,0.0102,0.0122,0.0125,0.0128,0.0208,0.0207,0.0207,0,0,0,0,0,0,-0.021,-0.0205,-0.0143,-0.016,-0.0149,-0.0096,-0.009,-0.008,-0.0061,0.0,0.0012,-0.0032,0.0062,0.0074,0.0111,0.0107,0.0127,0.0131,0.0208,0.0208,0.0207,0.0145,0,0,0,0,0,0,-0.0212,-0.0206,-0.0211,-0.0161,-0.0149,-0.0127,-0.0091,-0.0079,-0.0058,-0.0053,0.0011,0.0022,0.0063,0.0105,0.0115,0.0112,0.0134,0.0208,0.0208,0.0207,0.0147,0.0143,0.0139,0,0,0,0,0,-0.0215,-0.0228,-0.0212,-0.0206,-0.0157,-0.0127,-0.0118,-0.0077,-0.0058,-0.0056,-0.0009,0.002,0.011,0.0108,0.012,0.0118,0.0208,0.0208,0.0207,0.0149,0.0144,0.0139,0,0,0,0,0,0,-0.026,-0.0222,-0.0203,-0.0204,-0.0172,-0.0117,-0.0113,-0.0084,-0.0044,-0.0039,0.0021,0.0035,0.0064,0.0099,0.0096,0.0141,0.0163,0.0164,0.0114,0.0109,0.0105,0.0092,0.0137,0,0,0,0,0,-0.0273,-0.0272,-0.0227,-0.0229,-0.0217,-0.0166,-0.015,-0.0121,-0.0079,-0.0061,-0.0015,0.0032,0.0071,0.0096,0.0133,0.0159,0.02,0.0165,0.0161,0.0157,0.0154,0.0208,0.0209,0.0206,0.0206,0.0206,0,0,-0.0291,-0.027,-0.0269,-0.0238,-0.021,-0.0202,-0.0155,-0.0137,-0.0125,-0.0056,-0.003,0.0016,0.0074,0.0103,0.012,0.0133,0.018,0.0156,0.0152,0.0152,0.0208,0.0208,0.0209,0.0205,0.0205,0.0205,0,0,-0.0331,-0.0308,-0.0322,-0.0301,-0.0267,-0.0233,-0.0233,-0.0182,-0.0154,-0.0123,-0.0071,-0.0027,0.0029,0.0076,0.0105,0.0099,0.0151,0.0106,0.008,0.0132,0.0133,0.0134,0.0187,0.0194,0.0108,0.0108,0.0108,0,-0.0355,-0.0363,-0.0321,-0.0328,-0.0317,-0.0254,-0.0264,-0.0227,-0.0169,-0.0146,-0.0127,-0.003,0.0017,0.0067,0.0066,0.0089,0.0127,0.0094,0.0126,0.0128,0.013,0.0185,0.0193,0.0105,0.0105,0.0106,0.0106,0,-0.0401,-0.0407,-0.0414,-0.04,-0.0382,-0.0381,-0.0327,-0.0302,-0.0261,-0.0215,-0.0161,-0.0088,-0.0028,-0.0007,0.0029,0.0068,0.0092,0.011,0.0137,0.0127,0.0185,0.0194,0.0101,0.0102,0.0103,0.0104,0,0,-0.0453,-0.045,-0.0451,-0.0463,-0.0422,-0.0415,-0.0391,-0.0349,-0.033,-0.0263,-0.0229,-0.0152,-0.0102,-0.0065,-0.0007,0.0042,0.0092,0.0077,0.0081,0.0125,0.021,0.0262,0.0278,0.0114,0.0115,0.0116,0.0244,0,-0.0502,-0.0544,-0.0517,-0.0546,-0.0562,-0.05,-0.0483,-0.0433,-0.0374,-0.0323,-0.0229,-0.0179,-0.0125,-0.0095,-0.0037,0.0061,0.0113,0.0056,0.0217,0.0222,0.0267,0.0289,0.031,0.0429,0.0254,0.0255,0.0257,0,-0.0552,-0.0576,-0.0622,-0.0625,-0.0624,-0.0622,-0.0581,-0.0556,-0.046,-0.0413,-0.0332,-0.0253,-0.0157,-0.012,0.0046,0.0007,0.0098,0.0174,0.0181,0.0258,0.0292,0.0412,0.0453,0.06,0.0272,0.027,0.0269,0,-0.0619,-0.0645,-0.0688,-0.069,-0.0679,-0.0678,-0.066,-0.0585,-0.0563,-0.0464,-0.0429,-0.0301,-0.0234,-0.0104,0.0068,0.0054,0.0252,0.0255,0.0391,0.0396,0.046,0.0469,0.066,0.0363,0.0363,0.0362,0.0362,0,-0.0682,-0.0714,-0.0725,-0.0751,-0.079,-0.075,-0.0758,-0.0713,-0.0645,-0.0617,-0.0481,-0.0419,-0.023,-0.0084,0.0059,0.0269,0.0253,0.0397,0.0437,0.044,0.0445,0.0613,0.0656,0.0367,0.0366,0.0365,0.0364,0,-0.0746,-0.0753,-0.0806,-0.082,-0.0826,-0.0851,-0.0839,-0.0838,-0.0757,-0.0713,-0.0685,-0.0505,-0.0303,-0.0096,0.0132,0.026,0.0544,0.0522,0.0517,0.0555,0.0801,0.0839,0.106,0.1137,0.0686,0.0688,0.069,0,-0.0782,-0.0818,-0.0868,-0.0906,-0.0916,-0.0943,-0.0959,-0.0904,-0.0892,-0.0757,-0.0738,-0.0533,-0.0365,0.0011,0.0274,0.0553,0.0651,0.0721,0.0698,0.0835,0.0906,0.0932,0.0981,0.0762,0.0764,0.0766,0.0767,0,-0.0849,-0.0864,-0.0908,-0.0994,-0.1033,-0.1072,-0.1082,-0.1091,-0.1009,-0.0938,-0.0799,-0.065,-0.0265,0.0079,0.0449,0.0612,0.0823,0.0766,0.0915,0.0993,0.1027,0.1113,0.0656,0.0784,0.0782,0.0781,0.078,0.0779,-0.0886,-0.0937,-0.0998,-0.1074,-0.113,-0.1181,-0.1206,-0.1184,-0.1148,-0.1016,-0.0861,-0.0596,-0.0098,0.0442,0.0632,0.1028,0.0981,0.1132,0.117,0.1187,0.1255,0.0836,0.1001,0.1001,0.1,0.1,0.1,0,-0.0928,-0.0988,-0.1074,-0.1161,-0.1235,-0.1241,-0.1273,-0.1265,-0.1214,-0.1032,-0.0856,-0.0293,0.0198,0.0651,0.1213,0.1419,0.1449,0.1517,0.1558,0.1592,0.124,0.1236,0.1451,0.145,0.145,0.145,0.145,0.145,-0.0952,-0.1042,-0.1094,-0.1228,-0.1287,-0.1353,-0.1368,-0.1326,-0.1205,-0.0894,-0.0565,-0.0296,0.0366,0.1252,0.1759,0.1801,0.195,0.1937,0.2026,0.1779,0.1745,0.1713,0.1723,0.2036,0.2037,0.2361,0.2364,0.2367]}],[{"header":{"parameterUnit":"m.s-1","parameterCategory":2,"la1":30.2991,"la2":30.254,"lo1":-89.0895,"lo2":-89.0444,"dy":0.0017,"dx":0.0017,"nx":28,"ny":28,"refTime":"2025-08-10T03:00:00:Z","depth":"2","parameterNumber":2,"parameterNumberName":"U-component_of_CURRENTS"},"data":[0,0,0,0,0,0,0,0,0,0,0,0,0,0,0,0,0,0,0,0,0,0,0,0,0,0,0,0,0,0,0,0,0,0,0,0,0,0,0,0,0,0,0,0,0,0,0,0,0,0,0,0,0,0,0,0,0,0,-0.2091,-0.2092,0,-0.2125,-0.2125,-0.2125,-0.2108,-0.2108,-0.2107,-0.2107,-0.2083,-0.2083,-0.2083,0,0,0,0,0,0,0,0,0,0,0,0,0,-0.2004,-0.2006,-0.2091,-0.2092,-0.2093,-0.2125,-0.2125,-0.2125,-0.2109,-0.2108,-0.2107,-0.2106,-0.2083,-0.2083,-0.2083,0,0,0,0,0,0,0,0,0,0,0,0,0,-0.2038,-0.2006,-0.2091,-0.209,-0.209,-0.2125,-0.2125,-0.2125,-0.2109,-0.2108,-0.2107,-0.2106,-0.2083,-0.2083,-0.2083,-0.2102,0,0,-0.2083,-0.2083,0,0,0,0,0,0,0,0,-0.2036,-0.2041,-0.2089,-0.209,-0.2091,-0.2114,-0.2086,-0.2116,-0.2109,-0.2099,-0.2107,-0.2105,-0.209,-0.2089,-0.2095,-0.2101,-0.21,-0.2083,-0.2083,-0.2083,-0.2083,0,0,0,0,0,0,0,-0.2034,-0.2039,-0.2102,-0.209,-0.2091,-0.2085,-0.2088,-0.2091,-0.2097,-0.21,-0.2099,-0.2107,-0.2089,-0.2095,-0.2094,-0.21,-0.2083,-0.2083,-0.2083,-0.2082,-0.2137,-0.2139,0,0,0,0,0,0,-0.2036,-0.2038,-0.2101,-0.2103,-0.2063,-0.2088,-0.2091,-0.2105,-0.2098,-0.2097,-0.2108,-0.2107,-0.2096,-0.2095,-0.2093,-0.2133,-0.2083,-0.2082,-0.2082,-0.2136,-0.2137,-0.2139,0,0,0,0,0,0,-0.2035,-0.2042,-0.21,-0.2072,-0.208,-0.209,-0.2106,-0.2107,-0.2113,-0.2105,-0.2103,-0.2114,-0.2095,-0.2093,-0.2105,-0.2131,-0.2082,-0.2082,-0.2134,-0.2136,-0.2138,-0.2201,0,0,0,0,0,0,-0.2032,-0.2041,-0.205,-0.2073,-0.2081,-0.2128,-0.2107,-0.2108,-0.212,-0.2118,-0.2109,-0.2106,-0.2094,-0.2105,-0.2105,-0.213,-0.2082,-0.2132,-0.2135,-0.2138,-0.2197,-0.2205,-0.2212,0,0,0,0,0,-0.2029,-0.2048,-0.205,-0.2058,-0.2094,-0.2129,-0.2133,-0.2135,-0.2121,-0.2134,-0.2128,-0.2106,-0.2123,-0.2107,-0.2106,-0.2131,-0.2131,-0.2134,-0.2137,-0.2194,-0.2203,-0.2212,0,0,0,0,0,0,-0.2014,-0.2049,-0.2051,-0.208,-0.2106,-0.2127,-0.2138,-0.214,-0.2146,-0.214,-0.2124,-0.2122,-0.2143,-0.2131,-0.2114,-0.2157,-0.2124,-0.2127,-0.2167,-0.2176,-0.2183,-0.2182,-0.2082,0,0,0,0,0,-0.2016,-0.2037,-0.2071,-0.2092,-0.2106,-0.2122,-0.2134,-0.2142,-0.2153,-0.2154,-0.215,-0.2148,-0.2158,-0.216,-0.2165,-0.2187,-0.2175,-0.2204,-0.2212,-0.2218,-0.2218,-0.2231,-0.224,-0.215,-0.215,-0.215,0,0,-0.2015,-0.2037,-0.2048,-0.209,-0.2105,-0.2139,-0.2126,-0.2154,-0.218,-0.2151,-0.2176,-0.2174,-0.2171,-0.2198,-0.2206,-0.2189,-0.2239,-0.2222,-0.2228,-0.2223,-0.2236,-0.2244,-0.2252,-0.2152,-0.2152,-0.2151,0,0,-0.2027,-0.2045,-0.2067,-0.2096,-0.2132,-0.215,-0.2161,-0.2191,-0.22,-0.223,-0.2218,-0.2233,-0.2242,-0.2252,-0.2256,-0.2308,-0.2278,-0.2308,-0.2344,-0.2358,-0.2365,-0.2371,-0.237,-0.2376,-0.2311,-0.2311,-0.2312,0,-0.2021,-0.2058,-0.2079,-0.2114,-0.214,-0.2158,-0.2193,-0.2216,-0.2245,-0.2259,-0.2244,-0.2277,-0.2272,-0.2312,-0.2328,-0.2326,-0.2319,-0.2309,-0.2367,-0.2373,-0.2378,-0.2376,-0.2381,-0.2315,-0.2314,-0.2314,-0.2314,0,-0.2053,-0.2086,-0.2104,-0.2154,-0.2186,-0.2219,-0.226,-0.2288,-0.2298,-0.2318,-0.2356,-0.2357,-0.2372,-0.2381,-0.2367,-0.241,-0.2388,-0.2375,-0.2342,-0.239,-0.2385,-0.239,-0.232,-0.2319,-0.2318,-0.2317,0,0,-0.2029,-0.211,-0.2115,-0.2146,-0.221,-0.2239,-0.2293,-0.2346,-0.2377,-0.2403,-0.2439,-0.2464,-0.2457,-0.2461,-0.2454,-0.2466,-0.2497,-0.2434,-0.2434,-0.243,-0.2516,-0.2448,-0.2446,-0.2491,-0.2492,-0.2493,-0.2499,0,-0.2043,-0.2109,-0.2151,-0.2214,-0.2251,-0.2297,-0.2346,-0.2396,-0.2428,-0.2468,-0.2484,-0.2512,-0.2491,-0.2497,-0.251,-0.2499,-0.2511,-0.2496,-0.2473,-0.2472,-0.2402,-0.245,-0.2245,-0.2228,-0.2503,-0.2503,-0.2504,0,-0.2054,-0.21,-0.2162,-0.2247,-0.2267,-0.2308,-0.2383,-0.2431,-0.2496,-0.252,-0.2555,-0.2563,-0.2593,-0.2562,-0.2576,-0.2565,-0.2545,-0.2534,-0.2534,-0.2449,-0.2412,-0.2224,-0.2225,-0.2511,-0.251,-0.251,-0.2509,0,-0.2014,-0.2104,-0.2151,-0.2181,-0.2281,-0.2314,-0.2361,-0.2436,-0.2478,-0.2545,-0.2574,-0.2614,-0.2623,-0.2622,-0.2597,-0.2588,-0.26,-0.2586,-0.251,-0.2505,-0.2314,-0.229,-0.2597,-0.2597,-0.2597,-0.2596,-0.2596,0,-0.2008,-0.2045,-0.2134,-0.216,-0.2213,-0.2291,-0.2349,-0.2404,-0.2483,-0.2524,-0.2584,-0.2613,-0.2636,-0.2644,-0.262,-0.2574,-0.2618,-0.2522,-0.2506,-0.2331,-0.2309,-0.2537,-0.253,-0.2597,-0.2597,-0.2597,-0.2597,0,-0.1952,-0.2017,-0.2069,-0.2166,-0.2194,-0.2224,-0.2324,-0.2363,-0.2451,-0.2506,-0.2527,-0.2611,-0.2622,-0.2635,-0.2631,-0.2589,-0.2562,-0.2533,-0.232,-0.228,-0.2453,-0.245,-0.2458,-0.2456,-0.2454,-0.2452,-0.2451,0,-0.193,-0.195,-0.204,-0.2061,-0.21,-0.2162,-0.2201,-0.2317,-0.2359,-0.249,-0.2501,-0.2561,-0.2562,-0.255,-0.2497,-0.2452,-0.2515,-0.2236,-0.2188,-0.2457,-0.2442,-0.2441,-0.244,-0.196,-0.1955,-0.195,-0.1947,0,-0.1868,-0.1895,-0.1932,-0.1972,-0.2011,-0.2065,-0.2131,-0.2165,-0.2294,-0.2345,-0.2403,-0.2423,-0.2437,-0.2305,-0.2265,-0.2207,-0.223,-0.2148,-0.2482,-0.2033,-0.1989,-0.1974,-0.1989,-0.1909,-0.1913,-0.1915,-0.1917,-0.1919,-0.1797,-0.1797,-0.1834,-0.1863,-0.1906,-0.1935,-0.1931,-0.2011,-0.2053,-0.2095,-0.2212,-0.2175,-0.2177,-0.2016,-0.1933,-0.1873,-0.2024,-0.1914,-0.1926,-0.1943,-0.189,-0.1847,-0.1729,-0.1731,-0.1733,-0.1736,-0.1737,0,-0.1694,-0.1703,-0.1722,-0.1745,-0.1735,-0.1806,-0.1851,-0.1817,-0.1804,-0.1875,-0.1891,-0.1716,-0.1644,-0.1665,-0.1521,-0.1501,-0.1475,-0.1429,-0.1385,-0.1423,-0.1457,-0.1379,-0.1082,-0.108,-0.1079,-0.1077,0,0,-0.1638,-0.1609,-0.1619,-0.1559,-0.1573,-0.1514,-0.1507,-0.1475,-0.1484,-0.1424,-0.1409,-0.154,-0.16,-0.1334,-0.1277,-0.116,-0.1275,-0.1099,-0.162,-0.1604,-0.1636,-0.1728,-0.1651,0,0,0,0,0]},{"header":{"parameterUnit":"m.s-1","parameterCategory":2,"la1":30.2991,"la2":30.254,"lo1":-89.0895,"lo2":-89.0444,"dy":0.0017,"dx":0.0017,"nx":28,"ny":28,"refTime":"2025-08-10T03:00:00:Z","depth":"2","parameterNumber":3,"parameterNumberName":"V-component_of_CURRENTS"},"data":[0,0,0,0,0,0,0,0,0,0,0,0,0,0,0,0,0,0,0,0,0,0,0,0,0,0,0,0,0,0,0,0,0,0,0,0,0,0,0,0,0,0,0,0,0,0,0,0,0,0,0,0,0,0,0,0,0,0,-0.0092,-0.0091,0,-0.0008,-0.0007,-0.0006,0.005,0.005,0.005,0.0051,0.0155,0.0157,0.016,0,0,0,0,0,0,0,0,0,0,0,0,0,-0.0152,-0.0151,-0.0092,-0.0091,-0.009,-0.0008,-0.0007,-0.0006,0.005,0.005,0.0051,0.0051,0.0154,0.0157,0.016,0,0,0,0,0,0,0,0,0,0,0,0,0,-0.0102,-0.0151,-0.0092,-0.0054,-0.005,-0.0009,-0.0007,-0.0006,0.005,0.005,0.0051,0.0051,0.0153,0.0157,0.016,0.0176,0,0,0.0172,0.0174,0,0,0,0,0,0,0,0,-0.0105,-0.0099,-0.006,-0.0056,-0.0052,0.001,0.001,0.0056,0.005,0.0013,0.0051,0.0051,0.0107,0.0115,0.0131,0.0181,0.0185,0.0172,0.0175,0.0176,0.0177,0,0,0,0,0,0,0,-0.0108,-0.0102,-0.0058,-0.0059,-0.0054,-0.0023,-0.0015,0.0019,0.0058,0.0017,0.0021,0.0028,0.011,0.0127,0.0134,0.0187,0.0172,0.0176,0.0178,0.0179,0.0261,0.0261,0,0,0,0,0,0,-0.0125,-0.0106,-0.006,-0.0055,-0.0079,-0.0022,-0.0014,-0.0009,0.0058,0.0068,0.0027,0.003,0.0121,0.0129,0.0138,0.0161,0.0176,0.018,0.0182,0.0261,0.0261,0.0261,0,0,0,0,0,0,-0.0126,-0.0121,-0.0064,-0.008,-0.007,-0.0022,-0.0017,-0.0008,0.0009,0.0065,0.0076,0.0034,0.0121,0.0132,0.0169,0.0165,0.0181,0.0185,0.0261,0.0261,0.0261,0.0207,0,0,0,0,0,0,-0.0128,-0.0123,-0.0127,-0.0081,-0.007,-0.0048,-0.0017,-0.0007,0.0012,0.0017,0.0075,0.0085,0.0122,0.0163,0.0172,0.0171,0.0188,0.0261,0.0261,0.0261,0.0209,0.0205,0.0202,0,0,0,0,0,-0.0131,-0.0142,-0.0128,-0.0122,-0.0077,-0.0049,-0.0041,-0.0004,0.0012,0.0014,0.0058,0.0083,0.0168,0.0166,0.0177,0.0177,0.0261,0.0261,0.0261,0.021,0.0206,0.0202,0,0,0,0,0,0,-0.017,-0.0136,-0.012,-0.012,-0.009,-0.004,-0.0037,-0.001,0.0027,0.0031,0.0085,0.0099,0.0127,0.0159,0.0155,0.0199,0.0217,0.0219,0.0175,0.0171,0.0168,0.0153,0.0191,0,0,0,0,0,-0.0183,-0.0182,-0.0141,-0.0142,-0.0131,-0.0085,-0.0069,-0.0044,-0.0005,0.0012,0.0054,0.0097,0.0135,0.0158,0.0193,0.0219,0.0254,0.0226,0.0222,0.0219,0.0215,0.0264,0.0264,0.026,0.026,0.026,0,0,-0.0198,-0.018,-0.0179,-0.015,-0.0124,-0.0116,-0.0074,-0.0057,-0.0045,0.0017,0.0042,0.0084,0.0138,0.0167,0.0183,0.0195,0.0238,0.0218,0.0215,0.0213,0.0263,0.0264,0.0264,0.026,0.026,0.026,0,0,-0.0233,-0.0213,-0.0225,-0.0205,-0.0175,-0.0144,-0.0143,-0.0097,-0.0072,-0.0041,0.0006,0.0048,0.0101,0.0145,0.0173,0.017,0.0214,0.0177,0.0153,0.02,0.0201,0.0202,0.0246,0.0251,0.0179,0.0179,0.0179,0,-0.0254,-0.0261,-0.0224,-0.0228,-0.0219,-0.0162,-0.0171,-0.0135,-0.0082,-0.0061,-0.0044,0.0047,0.0092,0.014,0.014,0.0162,0.0193,0.0165,0.0195,0.0197,0.0199,0.0244,0.025,0.0177,0.0177,0.0177,0.0178,0,-0.0293,-0.0298,-0.0304,-0.0291,-0.0275,-0.0273,-0.0223,-0.02,-0.0163,-0.0122,-0.0071,-0.0002,0.0053,0.0074,0.0108,0.0145,0.0163,0.0181,0.0204,0.0196,0.0244,0.0251,0.0173,0.0174,0.0175,0.0175,0,0,-0.034,-0.0335,-0.0337,-0.0347,-0.0309,-0.0303,-0.028,-0.0242,-0.0226,-0.0163,-0.0134,-0.0058,-0.0014,0.0021,0.0075,0.0121,0.0165,0.0151,0.0155,0.0189,0.0266,0.0297,0.0309,0.0186,0.0187,0.0188,0.0293,0,-0.0383,-0.0418,-0.0394,-0.0419,-0.0433,-0.0378,-0.0363,-0.0317,-0.0265,-0.0221,-0.0132,-0.0087,-0.0035,-0.0008,0.0047,0.0136,0.0183,0.0134,0.0272,0.0276,0.0301,0.0318,0.0276,0.0367,0.0301,0.0302,0.0303,0,-0.0427,-0.0448,-0.0487,-0.0491,-0.049,-0.049,-0.0456,-0.0433,-0.0348,-0.0307,-0.0233,-0.0161,-0.0072,-0.0035,0.0116,0.0081,0.0164,0.0233,0.0239,0.0292,0.0322,0.0365,0.0384,0.0317,0.0315,0.0314,0.0314,0,-0.0487,-0.051,-0.0548,-0.0549,-0.054,-0.0542,-0.0527,-0.0462,-0.0445,-0.0357,-0.033,-0.021,-0.015,-0.003,0.0125,0.0118,0.0288,0.0299,0.0407,0.041,0.0414,0.0415,0.0396,0.0396,0.0396,0.0395,0.0395,0,-0.0544,-0.0573,-0.0583,-0.0605,-0.0645,-0.0609,-0.0621,-0.0582,-0.0525,-0.0505,-0.0381,-0.0332,-0.0148,-0.002,0.0111,0.0291,0.0284,0.0408,0.0442,0.0394,0.0393,0.0379,0.0375,0.0399,0.0399,0.0398,0.0397,0,-0.0601,-0.0607,-0.0655,-0.067,-0.0677,-0.0703,-0.0699,-0.0702,-0.0634,-0.0601,-0.0577,-0.0418,-0.0243,-0.005,0.0157,0.0274,0.0439,0.0501,0.0433,0.0458,0.053,0.0522,0.0628,0.063,0.0631,0.0633,0.0634,0,-0.0635,-0.0666,-0.0713,-0.0749,-0.076,-0.079,-0.0809,-0.0764,-0.0759,-0.0651,-0.0638,-0.0462,-0.032,0.0009,0.0242,0.0489,0.0492,0.0585,0.0567,0.0532,0.0555,0.0545,0.0535,0.0552,0.0552,0.0553,0.0553,0,-0.0696,-0.0709,-0.0749,-0.0829,-0.087,-0.0912,-0.0928,-0.094,-0.0874,-0.082,-0.0712,-0.0588,-0.026,0.0015,0.034,0.0475,0.0544,0.06,0.0593,0.0497,0.0469,0.0488,0.048,0.0556,0.0556,0.0556,0.0555,0.0555,-0.0732,-0.0778,-0.0833,-0.0903,-0.0959,-0.1012,-0.104,-0.103,-0.1009,-0.0903,-0.0779,-0.0564,-0.0291,0.0172,0.0397,0.0606,0.0608,0.0655,0.065,0.0646,0.0616,0.0593,0.0697,0.0698,0.0698,0.0698,0.0699,0,-0.0775,-0.0827,-0.0904,-0.0983,-0.1053,-0.1065,-0.1103,-0.1097,-0.1064,-0.0924,-0.0784,-0.0477,-0.0154,0.0135,0.0468,0.0668,0.0644,0.0693,0.062,0.0616,0.0613,0.0578,0.0651,0.0651,0.0651,0.0652,0,0,-0.08,-0.0879,-0.0922,-0.1042,-0.1099,-0.1167,-0.1186,-0.1151,-0.1055,-0.0908,-0.0736,-0.05,-0.0144,0.0078,0.0328,0.0501,0.0504,0.0513,0.0531,0.0411,0.0405,0.0571,0.0512,0,0,0,0,0]}],[{"header":{"parameterUnit":"m.s-1","parameterCategory":2,"la1":30.2991,"la2":30.254,"lo1":-89.0895,"lo2":-89.0444,"dy":0.0017,"dx":0.0017,"nx":28,"ny":28,"refTime":"2025-08-10T03:00:00:Z","depth":"4","parameterNumber":2,"parameterNumberName":"U-component_of_CURRENTS"},"data":[0,0,0,0,0,0,0,0,0,0,0,0,0,0,0,0,0,0,0,0,0,0,0,0,0,0,0,0,0,0,0,0,0,0,0,0,0,0,0,0,0,0,0,0,0,0,0,0,0,0,0,0,0,0,0,0,0,0,-0.1463,-0.1464,0,-0.1518,-0.1519,-0.1519,-0.1551,-0.1551,-0.1551,-0.1551,-0.1588,-0.1589,-0.1589,0,0,0,0,0,0,0,0,0,0,0,0,0,-0.1378,-0.1379,-0.1463,-0.1464,-0.1465,-0.1518,-0.1519,-0.1519,-0.1551,-0.1551,-0.1551,-0.1552,-0.1588,-0.1589,-0.1589,0,0,0,0,0,0,0,0,0,0,0,0,0,-0.1421,-0.138,-0.1463,-0.1488,-0.1491,-0.1518,-0.1519,-0.152,-0.1551,-0.1551,-0.1551,-0.1552,-0.1587,-0.1589,-0.159,-0.1588,0,0,-0.1593,-0.1593,0,0,0,0,0,0,0,0,-0.1418,-0.1423,-0.1484,-0.1487,-0.149,-0.153,-0.1502,-0.1542,-0.155,-0.1526,-0.1551,-0.1552,-0.1568,-0.157,-0.1578,-0.159,-0.1592,-0.1593,-0.1594,-0.1594,-0.1594,0,0,0,0,0,0,0,-0.1415,-0.1421,-0.1483,-0.1485,-0.1488,-0.1494,-0.1501,-0.151,-0.1542,-0.1528,-0.1531,-0.154,-0.1569,-0.1576,-0.1579,-0.1592,-0.1593,-0.1594,-0.1595,-0.1595,-0.1675,-0.1676,0,0,0,0,0,0,-0.1412,-0.1419,-0.1482,-0.1485,-0.1456,-0.1496,-0.1503,-0.1515,-0.1543,-0.1548,-0.1539,-0.1541,-0.1574,-0.1577,-0.158,-0.1648,-0.1594,-0.1595,-0.1596,-0.1674,-0.1675,-0.1677,0,0,0,0,0,0,-0.141,-0.1417,-0.148,-0.1454,-0.1463,-0.1497,-0.151,-0.1516,-0.1549,-0.1552,-0.1556,-0.157,-0.1575,-0.1579,-0.1615,-0.1647,-0.1596,-0.1597,-0.1672,-0.1674,-0.1676,-0.1741,0,0,0,0,0,0,-0.1407,-0.1416,-0.1435,-0.1454,-0.1464,-0.1516,-0.151,-0.1517,-0.1553,-0.1556,-0.1579,-0.1581,-0.1575,-0.1613,-0.1616,-0.1648,-0.1597,-0.167,-0.1673,-0.1675,-0.1737,-0.1745,-0.1752,0,0,0,0,0,-0.1404,-0.1426,-0.1436,-0.1444,-0.1486,-0.1517,-0.1523,-0.1547,-0.1554,-0.1577,-0.1593,-0.1582,-0.1633,-0.1616,-0.1618,-0.1651,-0.1669,-0.1672,-0.1675,-0.1734,-0.1744,-0.1752,0,0,0,0,0,0,-0.1402,-0.1432,-0.1443,-0.1475,-0.1504,-0.1524,-0.1549,-0.1562,-0.1593,-0.1603,-0.1601,-0.1605,-0.1648,-0.1641,-0.1623,-0.1682,-0.1649,-0.1653,-0.1692,-0.1702,-0.1709,-0.1706,-0.1598,0,0,0,0,0,-0.1409,-0.1434,-0.1462,-0.149,-0.1507,-0.1532,-0.1552,-0.1571,-0.1594,-0.161,-0.1626,-0.1642,-0.1659,-0.1675,-0.1687,-0.1721,-0.1708,-0.1743,-0.1751,-0.1758,-0.1757,-0.1772,-0.178,-0.1688,-0.1688,-0.1688,0,0,-0.1416,-0.1436,-0.1452,-0.1492,-0.1515,-0.1549,-0.1546,-0.1587,-0.1621,-0.1608,-0.1664,-0.1671,-0.1674,-0.1713,-0.1732,-0.1715,-0.1779,-0.1762,-0.1767,-0.1763,-0.1776,-0.1785,-0.1793,-0.169,-0.169,-0.1689,0,0,-0.1434,-0.1462,-0.1488,-0.1516,-0.156,-0.1578,-0.1596,-0.1634,-0.1661,-0.1708,-0.1707,-0.1737,-0.1768,-0.1777,-0.1783,-0.1839,-0.1817,-0.1847,-0.1886,-0.1901,-0.1908,-0.1914,-0.1913,-0.1919,-0.1852,-0.1853,-0.1853,0,-0.1444,-0.1478,-0.1502,-0.1535,-0.1564,-0.1594,-0.1632,-0.1663,-0.1711,-0.1735,-0.1738,-0.1792,-0.1797,-0.1836,-0.1856,-0.1857,-0.1854,-0.1851,-0.191,-0.1916,-0.1921,-0.1918,-0.1924,-0.1856,-0.1856,-0.1855,-0.1855,0,-0.1473,-0.1514,-0.1534,-0.1584,-0.162,-0.1659,-0.1702,-0.1746,-0.1779,-0.1804,-0.1862,-0.1873,-0.19,-0.1912,-0.1902,-0.1947,-0.1929,-0.1916,-0.1885,-0.1935,-0.1928,-0.1933,-0.1861,-0.186,-0.1859,-0.1858,0,0,-0.1457,-0.1538,-0.1548,-0.1582,-0.1651,-0.168,-0.1745,-0.1803,-0.1845,-0.1894,-0.1942,-0.1978,-0.1983,-0.1989,-0.1987,-0.2002,-0.2039,-0.198,-0.1979,-0.1974,-0.2064,-0.1928,-0.1919,-0.2039,-0.204,-0.2041,-0.2045,0,-0.1474,-0.1539,-0.158,-0.1651,-0.1687,-0.1742,-0.1797,-0.1856,-0.1903,-0.1957,-0.1984,-0.2026,-0.2013,-0.203,-0.2047,-0.2041,-0.2054,-0.2038,-0.2019,-0.2018,-0.1888,-0.1921,-0.2044,-0.2048,-0.2049,-0.205,-0.205,0,-0.1481,-0.1526,-0.1595,-0.1684,-0.1706,-0.1757,-0.1845,-0.1898,-0.1975,-0.2012,-0.206,-0.2078,-0.2117,-0.2094,-0.2116,-0.2108,-0.2092,-0.2082,-0.2082,-0.1932,-0.189,-0.1988,-0.2058,-0.2057,-0.2057,-0.2056,-0.2056,0,-0.1439,-0.1535,-0.1591,-0.1622,-0.1726,-0.1774,-0.183,-0.1914,-0.1959,-0.2045,-0.208,-0.2131,-0.2153,-0.2158,-0.2138,-0.2136,-0.2145,-0.2136,-0.1999,-0.199,-0.2083,-0.2076,-0.2147,-0.2147,-0.2147,-0.2147,-0.2147,0,-0.1424,-0.1473,-0.1581,-0.1611,-0.1679,-0.176,-0.1834,-0.1897,-0.1983,-0.2021,-0.2099,-0.212,-0.217,-0.2178,-0.2159,-0.2081,-0.2161,-0.2003,-0.1981,-0.211,-0.2106,-0.2086,-0.2078,-0.2147,-0.2147,-0.2147,-0.2147,0,-0.1364,-0.1439,-0.1506,-0.1622,-0.166,-0.1705,-0.1822,-0.1862,-0.1962,-0.2013,-0.2041,-0.2122,-0.2125,-0.2151,-0.2151,-0.2084,-0.2041,-0.1993,-0.2126,-0.2112,-0.1874,-0.1871,-0.1846,-0.1841,-0.1837,-0.1834,-0.1831,0,-0.1337,-0.1366,-0.1489,-0.1522,-0.1578,-0.1661,-0.1707,-0.1829,-0.1862,-0.1984,-0.1984,-0.2043,-0.2073,-0.1963,-0.201,-0.1969,-0.1942,-0.1912,-0.1895,-0.1862,-0.1844,-0.1847,-0.1849,-0.1824,-0.1823,-0.1822,-0.1821,0,-0.1273,-0.1327,-0.1377,-0.1439,-0.1498,-0.1557,-0.1633,-0.1647,-0.1768,-0.1883,-0.187,-0.1869,-0.187,-0.1863,-0.1841,-0.1812,-0.193,-0.1869,-0.1878,-0.1862,-0.1836,-0.1823,-0.1829,-0.1807,-0.1809,-0.181,-0.1811,0,-0.1219,-0.123,-0.1292,-0.1334,-0.14,-0.1416,-0.1482,-0.1514,-0.1566,-0.1703,-0.169,-0.1755,-0.1839,-0.178,-0.176,-0.1722,-0.1698,-0.1642,-0.1661,-0.1678,-0.162,-0.1562,-0.1426,0,0,0,0,0,-0.1152,-0.1146,-0.1177,-0.1212,-0.127,-0.1307,-0.1408,-0.1475,-0.1597,-0.1538,-0.161,-0.1601,-0.1581,-0.1619,-0.1543,-0.1688,-0.1707,-0.1594,-0.1653,-0.1729,-0.1745,-0.1693,0,0,0,0,0,0,-0.1106,-0.1129,-0.1133,-0.1093,-0.1091,-0.114,-0.1198,-0.1288,-0.1268,-0.1397,-0.1389,-0.1494,-0.1494,-0.1588,-0.1504,-0.1516,-0.1518,-0.1647,-0.1642,-0.172,-0.1735,-0.1748,-0.17,0,0,0,0,0]},{"header":{"parameterUnit":"m.s-1","parameterCategory":2,"la1":30.2991,"la2":30.254,"lo1":-89.0895,"lo2":-89.0444,"dy":0.0017,"dx":0.0017,"nx":28,"ny":28,"refTime":"2025-08-10T03:00:00:Z","depth":"4","parameterNumber":3,"parameterNumberName":"V-component_of_CURRENTS"},"data":[0,0,0,0,0,0,0,0,0,0,0,0,0,0,0,0,0,0,0,0,0,0,0,0,0,0,0,0,0,0,0,0,0,0,0,0,0,0,0,0,0,0,0,0,0,0,0,0,0,0,0,0,0,0,0,0,0,0,-0.0053,-0.0052,0,0.0007,0.0008,0.0008,0.0049,0.0049,0.005,0.005,0.0134,0.0136,0.0138,0,0,0,0,0,0,0,0,0,0,0,0,0,-0.0092,-0.0091,-0.0053,-0.0052,-0.0051,0.0007,0.0008,0.0009,0.0049,0.0049,0.005,0.005,0.0133,0.0136,0.0138,0,0,0,0,0,0,0,0,0,0,0,0,0,-0.0057,-0.0091,-0.0053,-0.0025,-0.0022,0.0007,0.0008,0.0009,0.0049,0.0049,0.005,0.005,0.0132,0.0135,0.0138,0.0152,0,0,0.0148,0.0149,0,0,0,0,0,0,0,0,-0.0059,-0.0055,-0.003,-0.0027,-0.0024,0.002,0.0025,0.0058,0.0049,0.0023,0.005,0.005,0.0097,0.0103,0.0115,0.0156,0.016,0.0148,0.015,0.0151,0.0152,0,0,0,0,0,0,0,-0.0061,-0.0057,-0.0028,-0.0029,-0.0025,-0.0002,0.0003,0.0031,0.0059,0.0026,0.0028,0.0033,0.0099,0.0112,0.0117,0.0161,0.0148,0.0151,0.0153,0.0154,0.0225,0.0225,0,0,0,0,0,0,-0.0074,-0.006,-0.003,-0.0026,-0.0042,-0.0002,0.0004,0.0007,0.0059,0.0066,0.0033,0.0035,0.0106,0.0114,0.012,0.0143,0.0151,0.0154,0.0156,0.0225,0.0225,0.0225,0,0,0,0,0,0,-0.0075,-0.0072,-0.0032,-0.0042,-0.0036,-0.0002,0.0001,0.0008,0.002,0.0063,0.0072,0.0038,0.0107,0.0116,0.0147,0.0147,0.0156,0.0159,0.0225,0.0225,0.0225,0.0187,0,0,0,0,0,0,-0.0076,-0.0072,-0.0076,-0.0043,-0.0036,-0.0021,0.0001,0.0009,0.0022,0.0025,0.0071,0.0079,0.0108,0.0142,0.015,0.0151,0.0161,0.0225,0.0225,0.0225,0.0188,0.0185,0.0183,0,0,0,0,0,-0.0078,-0.0086,-0.0077,-0.0073,-0.0042,-0.0022,-0.0016,0.0011,0.0022,0.0024,0.0059,0.0078,0.0148,0.0145,0.0154,0.0156,0.0225,0.0225,0.0225,0.0189,0.0186,0.0183,0,0,0,0,0,0,-0.0104,-0.0082,-0.0071,-0.0072,-0.0051,-0.0015,-0.0013,0.0007,0.0035,0.0039,0.0081,0.0092,0.0117,0.0142,0.0137,0.0176,0.0188,0.019,0.0158,0.0155,0.0153,0.0138,0.0164,0,0,0,0,0,-0.0114,-0.0115,-0.0086,-0.0087,-0.008,-0.0047,-0.0036,-0.0018,0.0012,0.0025,0.0058,0.0093,0.0124,0.0143,0.0171,0.0195,0.022,0.0202,0.02,0.0197,0.0192,0.0232,0.0233,0.0225,0.0225,0.0225,0,0,-0.0125,-0.0113,-0.0113,-0.0094,-0.0076,-0.007,-0.004,-0.0028,-0.0019,0.0029,0.0051,0.0084,0.0127,0.0153,0.0167,0.0175,0.0212,0.0197,0.0195,0.0191,0.0232,0.0233,0.0234,0.0225,0.0225,0.0225,0,0,-0.0149,-0.0137,-0.0146,-0.0133,-0.0112,-0.009,-0.009,-0.0056,-0.0037,-0.0012,0.0025,0.006,0.0104,0.0139,0.0162,0.0164,0.0195,0.017,0.0152,0.0191,0.0192,0.0193,0.0222,0.0226,0.0173,0.0173,0.0173,0,-0.0164,-0.017,-0.0145,-0.0149,-0.0144,-0.0104,-0.011,-0.0083,-0.0042,-0.0028,-0.0013,0.006,0.0098,0.0137,0.0139,0.0159,0.0181,0.0159,0.0188,0.0189,0.0191,0.022,0.0225,0.0171,0.0171,0.0171,0.0171,0,-0.0191,-0.0197,-0.0202,-0.0194,-0.0184,-0.0183,-0.0147,-0.0131,-0.0104,-0.0073,-0.0033,0.0025,0.0067,0.0087,0.0116,0.0148,0.0159,0.0176,0.0193,0.0189,0.022,0.0226,0.0168,0.0169,0.0169,0.017,0,0,-0.0223,-0.0223,-0.0225,-0.0235,-0.021,-0.0208,-0.0191,-0.0164,-0.0156,-0.0104,-0.0086,-0.0019,0.0015,0.0043,0.0088,0.0128,0.0164,0.0154,0.0157,0.0177,0.0243,0.0226,0.0231,0.0187,0.0187,0.0188,0.0258,0,-0.0253,-0.0281,-0.0266,-0.0288,-0.03,-0.0264,-0.0255,-0.0223,-0.0185,-0.0155,-0.0084,-0.005,-0.0002,0.0018,0.0067,0.0141,0.0178,0.0143,0.0246,0.0249,0.0232,0.0237,0.0191,0.0262,0.0264,0.0265,0.0265,0,-0.0283,-0.0301,-0.0334,-0.0345,-0.0347,-0.0351,-0.0335,-0.0319,-0.026,-0.0229,-0.0173,-0.0116,-0.0042,-0.0008,0.0117,0.0092,0.0158,0.0216,0.022,0.0221,0.0243,0.0268,0.0276,0.0275,0.0274,0.0274,0.0273,0,-0.0325,-0.0348,-0.0381,-0.0384,-0.0385,-0.0393,-0.0389,-0.0346,-0.0338,-0.0275,-0.0259,-0.0161,-0.0114,-0.0013,0.0114,0.0115,0.0245,0.0264,0.0311,0.0311,0.0322,0.032,0.034,0.034,0.034,0.034,0.034,0,-0.036,-0.0388,-0.0408,-0.0427,-0.0468,-0.0447,-0.0469,-0.0444,-0.041,-0.04,-0.0304,-0.0272,-0.0113,-0.0015,0.0096,0.0221,0.0235,0.0305,0.0328,0.0303,0.0299,0.0326,0.0323,0.0343,0.0342,0.0342,0.0341,0,-0.0394,-0.0406,-0.0451,-0.0476,-0.049,-0.0518,-0.0535,-0.0544,-0.0502,-0.0485,-0.0468,-0.0351,-0.0218,-0.0061,0.011,0.019,0.0315,0.0352,0.0307,0.0327,0.0357,0.0352,0.0409,0.0409,0.0409,0.0409,0.0409,0,-0.0413,-0.0439,-0.0497,-0.0533,-0.055,-0.0588,-0.0613,-0.0594,-0.0595,-0.0531,-0.0524,-0.04,-0.0304,-0.0073,0.0086,0.0293,0.0321,0.0376,0.0374,0.0347,0.0365,0.0359,0.0354,0.0409,0.0409,0.0409,0.0409,0,-0.0448,-0.047,-0.0507,-0.0585,-0.0631,-0.0678,-0.0706,-0.0716,-0.0678,-0.0649,-0.0559,-0.0426,-0.0278,-0.0084,0.0078,0.0224,0.0338,0.0377,0.0378,0.0376,0.0348,0.0364,0.0359,0.0409,0.0409,0.0409,0.0409,0,-0.0471,-0.0509,-0.0562,-0.0625,-0.0691,-0.0739,-0.0752,-0.0741,-0.0733,-0.0649,-0.0625,-0.0447,-0.0339,-0.0121,0.0026,0.0173,0.0208,0.0247,0.0255,0.0257,0.0194,0.0135,0.0147,0,0,0,0,0,-0.0489,-0.0532,-0.0599,-0.0665,-0.073,-0.0766,-0.0799,-0.0797,-0.0766,-0.071,-0.066,-0.0515,-0.0279,-0.0176,-0.0031,0.0016,0.0223,0.0187,0.0268,0.0409,0.0409,0.0359,0,0,0,0,0,0,-0.0504,-0.0565,-0.0599,-0.0681,-0.0732,-0.0797,-0.0821,-0.0803,-0.0759,-0.0706,-0.0578,-0.0496,-0.0264,-0.0357,-0.0031,0.0013,0.0078,0.0305,0.0308,0.0409,0.0409,0.0409,0.0358,0,0,0,0,0]}]]